User: anonymous   Login
Location: Chanteloup
(48.8560°N, 2.7390°E)
Time: 17:11:11
(UTC+00:00)
Language:

deb ESSA 1 - Orbit

View from above orbital plane
View from above orbital plane
View from above satellite
View from above satellite

Ground track
Ground track

The orbit data is extracted from the following two-line orbital elements,

1 02118U 66008D   22222.47624474  .00000319  00000-0  97199-4 0  9992
2 02118  97.9355  58.8248 0132172 212.2438 147.0624 14.43291794932681
Epoch (UTC): 10 August 2022 11:25:47
Eccentricity: 0.0132172
inclination: 97.9355°
perigee height: 653 km
apogee height: 842 km
right ascension of ascending node: 58.8248°
argument of perigee: 212.2438°
revolutions per day: 14.43291794
mean anomaly at epoch: 147.0624°
orbit number at epoch: 93268

The dashed part of the orbit path shows where the satellite is in the earth's shadow,  

DLR